15 daagse weersverwachting MŠlaga (ES)

  • Overzicht
  • Per uur
  • 15 dagen
  • Extra
  • Vergelijk
  • Kaarten
  • Dagkaart
  • Meer »
  • Info
  • Statistieken
  • Directe link
    Temp 6h Neerslag Wind  
 08:06     20:38    Daglengte: 12:32 Vandaag
20:00
16°
 
2
 08:04     20:39    Daglengte: 12:35 Morgen
02:00
14°
2.9 mm
2
08:00
13°
17.5 mm
8
14:00
15°
25.7 mm
6
20:00
14°
23.1 mm
3
 08:03     20:40    Daglengte: 12:37 Woensdag 01 Apr
02:00
14°
28.9 mm
3
warningclass
08:00
12°
19.0 mm
2
14:00
17°
 
3
20:00
16°
17.7 mm
3
 08:01     20:41    Daglengte: 12:40 Donderdag 02 Apr
02:00
12°
 
2
08:00
11°
20.8 mm
2
Locatie info
Region: AndalucŪa
Latitude: 36.7183°N
Longitude: -4.4202°E
22 masl
Postcode: 29015
Temp/Neerslag /Baro Onweer/Dauwpunt
    Temp Baro 1h Neerslag Dauwpunt Wind UV Bewolking  
 08:06     20:38    Daglengte: 12:32 Vandaag
15:00
17°
1010.9 hPa   8.6°
3
Windvlaag: 2.3 km/h
86%
16:00
17°
1010.2 hPa   9.2°
3
Windvlaag: 1.7 km/h
86%
17:00
17°
1009.5 hPa   10.4°
3
Windvlaag: 1 km/h
87%
18:00
16°
1009.1 hPa
19%
10.8°
2
Windvlaag: 1 km/h
85%
19:00
16°
1008.8 hPa
21%
10.8°
2
Windvlaag: 0.6 km/h
85%
20:00
16°
1008.7 hPa
22%
11.2°
2
Windvlaag: 0.6 km/h
88%
21:00
15°
1008.7 hPa
22%
11.4°
2
Windvlaag: 1.4 km/h
87%
22:00
15°
1008.9 hPa
21%
11.1°
2
Windvlaag: 0.6 km/h
87%
23:00
14°
1009.0 hPa
22%
11.0°
2
Windvlaag: 0.6 km/h
88%
 08:04     20:39    Daglengte: 12:35 Morgen
00:00
14°
1008.9 hPa 0.6 mm
33%
11.8°
2
Windvlaag: 0.8 km/h
88%
01:00
14°
1008.4 hPa 1.3 mm
65%
11.9°
2
Windvlaag: 1.2 km/h
90%
02:00
14°
1007.9 hPa 1.0 mm
73%
11.7°
2
Windvlaag: 1.4 km/h
91%
03:00
14°
1007.1 hPa 1.9 mm
82%
11.7°
3
Windvlaag: 1.8 km/h
91%
04:00
13°
1006.6 hPa 3.2 mm
82%
11.8°
5
Windvlaag: 1.7 km/h
91%
05:00
13°
1006.0 hPa 3.4 mm
82%
11.8°
6
Windvlaag: 0.9 km/h
91%
06:00
13°
1005.4 hPa 2.6 mm
82%
11.7°
7
Windvlaag: 1.5 km/h
81%
07:00
13°
1005.6 hPa 3.5 mm
82%
11.9°
7
Windvlaag: 1 km/h
89%
08:00
13°
1005.9 hPa 3.0 mm
82%
11.9°
8
Windvlaag: 3.1 km/h
90%
09:00
13°
1006.5 hPa 4.6 mm
81%
11.8°
7
Windvlaag: 3.3 km/h
90%
10:00
14°
1006.7 hPa 4.7 mm
80%
12.0°
8
Windvlaag: 2 km/h
89%
11:00
14°
1006.8 hPa 3.9 mm
82%
11.5°
8
Windvlaag: 2.8 km/h
84%
12:00
14°
1007.6 hPa 3.9 mm
82%
12.3°
7
Windvlaag: 2.1 km/h
88%
13:00
14°
1007.9 hPa 4.4 mm
82%
12.6°
6
Windvlaag: 1.6 km/h
87%
14:00
15°
1008.0 hPa 4.2 mm
82%
12.9°
6
Windvlaag: 1.8 km/h
78%
15:00
15°
1008.2 hPa 4.3 mm
82%
12.8°
5
Windvlaag: 1.6 km/h
66%
16:00
15°
1008.0 hPa 3.9 mm
82%
13.1°
5
Windvlaag: 1.3 km/h
69%
17:00
15°
1007.7 hPa 3.7 mm
82%
13.1°
4
Windvlaag: 0.9 km/h
56%
18:00
15°
1007.8 hPa 3.9 mm
82%
13.1°
4
Windvlaag: 0.9 km/h
71%
19:00
15°
1008.0 hPa 3.8 mm
82%
12.9°
3
Windvlaag: 0.7 km/h
72%
20:00
14°
1008.2 hPa 3.5 mm
82%
13.0°
3
Windvlaag: 0.5 km/h
83%
21:00
14°
1008.9 hPa 3.9 mm
82%
13.1°
3
Windvlaag: 0.4 km/h
86%
22:00
14°
1009.7 hPa 4.3 mm
82%
13.2°
2
Windvlaag: 0.5 km/h
84%
23:00
14°
1010.3 hPa 4.7 mm
82%
13.3°
3
Windvlaag: 0.8 km/h
71% warningclass
 08:03     20:40    Daglengte: 12:37 Woensdag 01 Apr
00:00
14°
1010.5 hPa 4.8 mm
82%
13.2°
3
Windvlaag: 0.8 km/h
76% warningclass
01:00
14°
1010.6 hPa 5.1 mm
82%
13.2°
3
Windvlaag: 1.2 km/h
53% warningclass
02:00
14°
1010.6 hPa 6.1 mm
82%
12.8°
3
Windvlaag: 3.6 km/h
82% warningclass
03:00
14°
1010.3 hPa 5.9 mm
81%
12.9°
3
Windvlaag: 3.2 km/h
62% warningclass
04:00
14°
1010.1 hPa 5.8 mm
81%
12.5°
3
Windvlaag: -1.5 km/h
35%
05:00
13°
1010.1 hPa 7.3 mm
80%
12.2°
2
Windvlaag: -0.3 km/h
24%
06:00
13°
1010.3 hPa
41%
11.9°
1
Windvlaag: 2 km/h
25%
07:00
13°
1010.8 hPa
33%
11.5°
1
Windvlaag: 1.7 km/h
19%
08:00
12°
1011.4 hPa
30%
11.4°
2
Windvlaag: 2.1 km/h
14%
09:00
13°
1012.3 hPa
28%
11.0°
2
Windvlaag: 2.1 km/h
6%
10:00
14°
1013.0 hPa
28%
10.8°
2
Windvlaag: 1.6 km/h
9%
11:00
15°
1013.3 hPa
82%
8.7°
2
Windvlaag: 0.8 km/h
3%
12:00
16°
1013.7 hPa
82%
7.7°
2
Windvlaag: 1.6 km/h
6%
13:00
17°
1013.4 hPa
77%
6.4°
2
Windvlaag: 1.7 km/h
13%
14:00
17°
1012.9 hPa
75%
5.4°
3
Windvlaag: 1.8 km/h
14%
15:00
18°
1012.3 hPa 5.8 mm
83%
4.9°
3
Windvlaag: 1.5 km/h
11%
16:00
18°
1011.9 hPa
89%
4.8°
4
Windvlaag: 1.1 km/h
36%
17:00
18°
1011.5 hPa 5.9 mm
92%
4.1°
3
Windvlaag: 1 km/h
60%
18:00
18°
1011.3 hPa
100%
4.2°
3
Windvlaag: 1.5 km/h
5%
19:00
17°
1011.6 hPa
89%
5.6°
4
Windvlaag: 2.5 km/h
10%
20:00
16°
1011.9 hPa 6.0 mm
90%
6.6°
3
Windvlaag: 3.2 km/h
28%
21:00
14°
1012.4 hPa
83%
5.5°
3
Windvlaag: 2.9 km/h
8%
22:00
13°
1013.2 hPa
88%
6.1°
2
Windvlaag: 2.4 km/h
12%
23:00
13°
1014.0 hPa
34%
6.2°
2
Windvlaag: 0.9 km/h
33%
 08:01     20:41    Daglengte: 12:40 Donderdag 02 Apr
00:00
13°
1014.2 hPa
74%
6.6°
2
Windvlaag: 0.5 km/h
31%
01:00
13°
1013.8 hPa
32%
7.0°
2
Windvlaag: -0.1 km/h
33%
02:00
12°
1013.6 hPa
30%
7.3°
2
Windvlaag: -0.4 km/h
29%
03:00
12°
1013.2 hPa
35%
7.2°
2
Windvlaag: -0.9 km/h
33%
04:00
11°
1012.9 hPa
34%
7.4°
2
Windvlaag: 0.7 km/h
26%
05:00
11°
1012.6 hPa
28%
7.7°
2
Windvlaag: -0.6 km/h
47%
06:00
11°
1012.3 hPa
25%
7.9°
2
Windvlaag: -1.4 km/h
47%
07:00
11°
1012.1 hPa 9.6 mm
27%
8.2°
2
Windvlaag: -0.1 km/h
44%
08:00
11°
1011.8 hPa 11.2 mm
23%
8.4°
2
Windvlaag: -0 km/h
43%
09:00
12°
1012.4 hPa
22%
7.7°
2
Windvlaag: 3 km/h
24%
10:00
13°
1012.6 hPa
21%
7.6°
2
Windvlaag: 2 km/h
26%
11:00
14°
1012.9 hPa
21%
7.4°
3
Windvlaag: 4.2 km/h
37%
12:00
15°
1013.1 hPa
21%
7.2°
4
Windvlaag: 6.1 km/h
46%
13:00
16°
1013.2 hPa
21%
6.8°
5
Windvlaag: 6.1 km/h
52%
14:00
17°
1013.1 hPa
21%
5.9°
5
Windvlaag: 1.2 km/h
40%
Temp/Neerslag /Baro Onweer/Dauwpunt
    Temp Baro Neerslag Dauwpunt Wind Bewolking  
 08:06     20:38    Daglengte: 12:32 Vandaag
17:00
17°
1009.5 hPa   10.4°
3
87%
20:00
16°
1008.7 hPa   11.2°
2
88%
23:00
14°
1009.0 hPa   11.0°
2
88%
 08:04     20:39    Daglengte: 12:35 Morgen
02:00
14°
1007.9 hPa 2.9 mm 11.7°
2
91%
05:00
13°
1006.0 hPa 8.4 mm 11.8°
6
91%
08:00
13°
1005.9 hPa 9.1 mm 11.9°
8
90%
11:00
14°
1006.8 hPa 13.2 mm 11.5°
8
84%
14:00
15°
1008.0 hPa 12.5 mm 12.9°
6
78%
17:00
15°
1007.7 hPa 11.9 mm 13.1°
4
56%
20:00
14°
1008.2 hPa 11.2 mm 13.0°
3
83%
23:00
14°
1010.3 hPa 12.9 mm 13.3°
3
71% warningclass
 08:03     20:40    Daglengte: 12:37 Woensdag 01 Apr
02:00
14°
1010.6 hPa 16.0 mm 12.8°
3
82% warningclass
05:00
13°
1010.1 hPa 19.0 mm 12.2°
2
24%
08:00
12°
1011.4 hPa   11.4°
2
14%
11:00
15°
1013.3 hPa   8.7°
2
3%
14:00
17°
1012.9 hPa   5.4°
3
14%
17:00
18°
1011.5 hPa 11.7 mm 4.1°
3
60%
20:00
16°
1011.9 hPa 6.0 mm 6.6°
3
28%
23:00
13°
1014.0 hPa   6.2°
2
33%
 08:01     20:41    Daglengte: 12:40 Donderdag 02 Apr
02:00
12°
1013.6 hPa   7.3°
2
29%
05:00
11°
1012.6 hPa   7.7°
2
47%
08:00
11°
1011.8 hPa 20.8 mm 8.4°
2
43%
11:00
14°
1012.9 hPa   7.4°
3
37%
14:00
17°
1013.1 hPa   5.9°
5
40%
17:00
16°
1013.2 hPa 46.4 mm 5.6°
4
21%
20:00
16°
1013.6 hPa 46.9 mm 5.9°
3
3%
23:00
13°
1014.7 hPa 46.9 mm 6.3°
3
1%
 08:00     20:42    Daglengte: 12:42 Vrijdag 03 Apr
02:00
10°
1015.7 hPa 46.9 mm 6.2°
2
0%
05:00
10°
Voelt als: 8.8°
1014.9 hPa 46.9 mm 6.2°
2
0%
08:00
10°
Voelt als: 8.4°
1014.2 hPa 46.9 mm 6.2°
2
0%
11:00
14°
1014.8 hPa 46.9 mm 7.8°
4
0%
14:00
18°
1015.4 hPa 46.9 mm 8.8°
5
0%
17:00
16°
1014.9 hPa 46.9 mm 10.5°
5
1%
20:00
15°
1014.5 hPa 46.9 mm 11.6°
4
2%
23:00
14°
1015.1 hPa 46.9 mm 11.0°
5
5%
 07:58     20:43    Daglengte: 12:45 Zaterdag 04 Apr
02:00
14°
1015.4 hPa 46.9 mm 10.4°
6
8%
05:00
14°
1014.6 hPa 46.9 mm 9.9°
6
50%
08:00
15°
1013.9 hPa 46.9 mm 9.4°
6
92%
11:00
16°
1014.8 hPa 46.9 mm 9.9°
6
92%
14:00
16°
1015.9 hPa 46.9 mm 10.4°
5
92%
17:00
16°
1015.9 hPa 47.1 mm 11.0°
4
92%
20:00
16°
1016.0 hPa 47.1 mm 11.5°
3
92%
23:00
15°
1017.2 hPa 49.7 mm 10.9°
3
54%
 07:57     20:43    Daglengte: 12:46 Zondag 05 Apr
02:00
14°
1018.2 hPa 50.0 mm 10.1°
3
16%
05:00
13°
1018.9 hPa 53.8 mm 10.0°
2
26%
08:00
13°
1019.7 hPa 56.4 mm 9.8°
2
36%
11:00
15°
1021.2 hPa 56.7 mm 11.0°
3
37%
14:00
17°
1022.7 hPa 56.8 mm 12.2°
3
38%
17:00
17°
1022.6 hPa 56.8 mm 12.3°
3
64%
20:00
16°
1022.5 hPa 56.8 mm 12.5°
2
90%
23:00
15°
1024.0 hPa 56.9 mm 12.0°
1
91%
 07:56     20:44    Daglengte: 12:48 Maandag 06 Apr
02:00
13°
1025.3 hPa 56.9 mm 11.5°
1
91%
05:00
13°
1025.0 hPa 56.9 mm 11.7°
1
89%
08:00
14°
1024.9 hPa 56.9 mm 12.0°
1
87%
11:00
16°
1025.8 hPa 56.9 mm 12.0°
2
72%
14:00
17°
1026.7 hPa 113.8 mm 11.8°
4
57%
20:00
16°
1025.5 hPa 113.8 mm 11.3°
2
55%
 07:54     20:45    Daglengte: 12:51 Dinsdag 07 Apr
02:00
14°
1026.8 hPa 113.8 mm 12.0°
1
92%
08:00
14°
1025.8 hPa 113.8 mm 11.6°
3
87%
14:00
17°
1027.0 hPa 113.8 mm 11.5°
4
90%
20:00
16°
1024.9 hPa 113.8 mm 11.1°
2
87%
 07:53     20:46    Daglengte: 12:53 Woensdag 08 Apr
02:00
13°
1026.1 hPa 113.8 mm 9.9°
1
29%
08:00
13°
1025.0 hPa 113.8 mm 10.6°
1
87%
14:00
19°
1025.2 hPa 113.8 mm 12.2°
2
0%
20:00
17°
1023.6 hPa 113.9 mm 12.8°
1
43%
 07:51     20:47    Daglengte: 12:56 Donderdag 09 Apr
02:00
19°
1019.0 hPa 114.0 mm 14.2°
3
1%
08:00
17°
1016.5 hPa 114.0 mm 14.3°
2
0%
14:00
21°
1021.1 hPa 0.3 mm 13.3°
1
47%
20:00
20°
1019.1 hPa 0.3 mm 14.0°
1
52%
 07:50     20:48    Daglengte: 12:58 Vrijdag 10 Apr
02:00
16°
1020.7 hPa 0.2 mm 12.6°
1
51%
08:00
14°
1019.9 hPa 0.2 mm 11.5°
1
45%
14:00
21°
1020.5 hPa 0.5 mm 13.0°
1
44%
20:00
20°
1018.6 hPa 0.3 mm 13.8°
1
33%
 07:49     20:49    Daglengte: 13:00 Zaterdag 11 Apr
02:00
16°
1020.1 hPa 0.3 mm 12.6°
1
38%
08:00
15°
1019.6 hPa 0.2 mm 11.7°
1
34%
14:00
21°
1020.2 hPa 0.4 mm 12.8°
2
30%
20:00
19°
1018.7 hPa 0.7 mm 13.4°
2
33%
 07:47     20:50    Daglengte: 13:03 Zondag 12 Apr
02:00
15°
1020.3 hPa 0.3 mm 11.9°
1
29%
08:00
14°
1019.6 hPa 0.4 mm 11.0°
1
30%
14:00
21°
1019.5 hPa 0.2 mm 12.3°
1
23%
20:00
20°
1017.4 hPa 0.3 mm 13.4°
1
29%
 07:46     20:50    Daglengte: 13:04 Maandag 13 Apr
02:00
15°
1018.6 hPa 0.3 mm 12.2°
0
32%
08:00
14°
1017.8 hPa 0.3 mm 11.2°
1
26%
14:00
21°
1017.7 hPa 0.2 mm 11.8°
1
24%
20:00
20°
1015.7 hPa 0.2 mm 12.3°
1
25%
 07:44     20:51    Daglengte: 13:07 Dinsdag 14 Apr
02:00
15°
1017.1 hPa   10.9°
0
20%
08:00
14°
1016.6 hPa 0.2 mm 10.3°
1
29%
14:00
21°
1017.0 hPa 0.2 mm 11.1°
2
29%
  CAPE Lifted Index Hail Supercell Tornado SRH 3km CL BTM PRES CL TOP PRES Swiss DWD icon SMHI TS
 08:06     20:38    Daglengte: 12:32 Vandaag
15:00 0 J/kg 4.7 K 0 % 0 % 0 % 0 m²/s² 0 0 6.71 3
16:00 0 J/kg 4.4 K 0 % 0 % 0 % 0 m²/s² 0 0 5.81 3
17:00 0 J/kg 3.7 K 0 % 0 % 0 % 0 m²/s² 0 0 5.05 3
18:00 0 J/kg 3.0 K 0 % 0 % 0 % 0 m²/s² 0 0 4.02 3
19:00 3 J/kg 2.7 K 0 % 0 % 0 % 0 m²/s² 0 0 3.33 61
20:00 0 J/kg 2.1 K 0 % 0 % 0 % 0 m²/s² 0 0 2.73 61
21:00 0 J/kg 1.5 K 0 % 0 % 0 % 0 m²/s² 0 0 2.1 3
22:00 2 J/kg 1.1 K 0 % 0 % 0 % 0 m²/s² 0 0 1.43 3
23:00 39 J/kg 1.2 K 0 % 0 % 0 % 0 m²/s² 0 0 1.71 80
 08:04     20:39    Daglengte: 12:35 Morgen
00:00 46 J/kg 1.0 K 0 % 0 % 0 % 0 m²/s² 0 0 1.87 80
01:00 73 J/kg 0.7 K 0 % 0 % 0 % 0 m²/s² 0 0 1.39 61
02:00 157 J/kg 0.2 K 0 % 0 % 0 % 0 m²/s² 0 0 0.41 61
03:00 184 J/kg 0.2 K 0 % 0 % 0 % 0 m²/s² 0 0 0.38 61
04:00 247 J/kg -0.7 K 0 % 0 % 0 % 0 m²/s² 0 0 -0.61 61
05:00 103 J/kg -0.5 K 0 % 0 % 0 % 0 m²/s² 0 0 -0.41 61
06:00 162 J/kg -1.2 K 0 % 0 % 0 % 0 m²/s² 0 0 -1.05 61
07:00 222 J/kg -1.6 K 0 % 0 % 0 % 0 m²/s² 0 0 -0.25 61
08:00 346 J/kg -1.7 K 0 % 0 % 0 % 0 m²/s² 0 0 -0.98 61
09:00 389 J/kg -2.0 K 0 % 0 % 0 % 0 m²/s² 0 0 -1.25 63
10:00 509 J/kg -2.4 K 0 % 0 % 0 % 0 m²/s² 0 0 -1.44 63
11:00 568 J/kg -2.9 K 0 % 0 % 0 % 0 m²/s² 0 0 -1.61 61
12:00 588 J/kg -2.7 K 0 % 0 % 0 % 0 m²/s² 0 0 -1.41 80
13:00 567 J/kg -2.4 K 0 % 0 % 0 % 0 m²/s² 0 0 -0.54 61
14:00 555 J/kg -2.3 K 0 % 0 % 0 % 0 m²/s² 0 0 -0.32 80
15:00 546 J/kg -2.3 K 0 % 0 % 0 % 0 m²/s² 0 0 -0.05 80
16:00 487 J/kg -2.1 K 0 % 0 % 0 % 0 m²/s² 0 0 0.3 80
17:00 455 J/kg -2.1 K 0 % 0 % 0 % 0 m²/s² 0 0 0.51 80
18:00 446 J/kg -2.1 K 0 % 0 % 0 % 0 m²/s² 0 0 0.93 80
19:00 381 J/kg -1.7 K 0 % 0 % 0 % 0 m²/s² 0 0 0.85 3
20:00 306 J/kg -1.3 K 0 % 0 % 0 % 0 m²/s² 0 0 0.95 3
21:00 270 J/kg -1.4 K 0 % 0 % 0 % 0 m²/s² 0 0 -0.05 80
22:00 380 J/kg -1.9 K 0 % 0 % 0 % 0 m²/s² 0 0 -1.6 80
23:00 562 J/kg -2.3 K 0 % 0 % 0 % 0 m²/s² 0 0 -1.01 95
 08:03     20:40    Daglengte: 12:37 Woensdag 01 Apr
00:00 683 J/kg -2.9 K 0 % 0 % 0 % 0 m²/s² 0 0 -1.28 95
01:00 753 J/kg -3.3 K 0 % 0 % 0 % 0 m²/s² 0 0 -2.16 95
02:00 707 J/kg -3.3 K 0 % 0 % 0 % 0 m²/s² 0 0 -3.09 95
03:00 716 J/kg -3.2 K 0 % 0 % 0 % 0 m²/s² 0 0 -2.27 81
04:00 604 J/kg -2.4 K 0 % 0 % 0 % 0 m²/s² 0 0 -1.59 80
05:00 574 J/kg -2.0 K 0 % 0 % 0 % 0 m²/s² 0 0 0.4 0
06:00 343 J/kg -0.6 K 0 % 0 % 0 % 0 m²/s² 0 0 1.89 0
07:00 164 J/kg 0.3 K 0 % 0 % 0 % 0 m²/s² 0 0 5.22 0
08:00 106 J/kg 0.7 K 0 % 0 % 0 % 0 m²/s² 0 0 7.99 1
09:00 58 J/kg 1.5 K 0 % 0 % 0 % 0 m²/s² 0 0 9.39 1
10:00 8 J/kg 2.6 K 0 % 0 % 0 % 0 m²/s² 0 0 10.19 1
11:00 0 J/kg 4.1 K 0 % 0 % 0 % 0 m²/s² 0 0 11.99 1
12:00 1 J/kg 3.9 K 0 % 0 % 0 % 0 m²/s² 0 0 12.51 2
13:00 2 J/kg 4.2 K 0 % 0 % 0 % 0 m²/s² 0 0 13.65 2
14:00 3 J/kg 4.3 K 0 % 0 % 0 % 0 m²/s² 0 0 14.26 3
15:00 4 J/kg 3.7 K 0 % 0 % 0 % 0 m²/s² 0 0 13.15 80
16:00 28 J/kg 2.7 K 0 % 0 % 0 % 0 m²/s² 0 0 10.35 80
17:00 38 J/kg 2.5 K 0 % 0 % 0 % 0 m²/s² 0 0 8.08 80
18:00 48 J/kg 2.6 K 0 % 0 % 0 % 0 m²/s² 0 0 7.13 80
19:00 100 J/kg 2.0 K 0 % 0 % 0 % 0 m²/s² 0 0 6.29 80
20:00 176 J/kg 1.1 K 0 % 0 % 0 % 0 m²/s² 0 0 7.13 80
21:00 173 J/kg 1.4 K 0 % 0 % 0 % 0 m²/s² 0 0 8 80
22:00 42 J/kg 3.9 K 0 % 0 % 0 % 0 m²/s² 0 0 10.71 1
23:00 17 J/kg 4.4 K 0 % 0 % 0 % 0 m²/s² 0 0 11.69 2
 08:01     20:41    Daglengte: 12:40 Donderdag 02 Apr
00:00 0 J/kg 5.2 K 0 % 0 % 0 % 0 m²/s² 0 0 11.77 2
01:00 0 J/kg 5.8 K 0 % 0 % 0 % 0 m²/s² 0 0 11.02 2
02:00 0 J/kg 6.1 K 0 % 0 % 0 % 0 m²/s² 0 0 10.93 1
03:00 0 J/kg 5.9 K 0 % 0 % 0 % 0 m²/s² 0 0 10.04 1
04:00 0 J/kg 5.7 K 0 % 0 % 0 % 0 m²/s² 0 0 8.82 2
05:00 0 J/kg 6.6 K 0 % 0 % 0 % 0 m²/s² 0 0 8.88 1
06:00 0 J/kg 6.8 K 0 % 0 % 0 % 0 m²/s² 0 0 9.14 1
07:00 0 J/kg 6.7 K 0 % 0 % 0 % 0 m²/s² 0 0 8.53 2
08:00 0 J/kg 7.8 K 0 % 0 % 0 % 0 m²/s² 0 0 9.63 1
09:00 0 J/kg 7.5 K 0 % 0 % 0 % 0 m²/s² 0 0 9.51 1
10:00 0 J/kg 6.9 K 0 % 0 % 0 % 0 m²/s² 0 0 9.6 0
11:00 8 J/kg 7.3 K 0 % 0 % 0 % 0 m²/s² 0 0 9.49 0
12:00 94 J/kg 7.4 K 0 % 0 % 0 % 0 m²/s² 0 0 8.93 0
13:00 133 J/kg 6.6 K 0 % 0 % 0 % 0 m²/s² 0 0 7.83 1
14:00 149 J/kg 5.8 K 0 % 0 % 0 % 0 m²/s² 0 0 6.85 0
Temp Baro Wind Neerslag
  EWN Forecast EWN WRFDA DWD ICON FMI HIRLAM MET Norway GFS
 08:06     20:38    Daglengte: 12:32 Vandaag
17:00 17.0° 1009.5 hPa 3.0 m/s 0.0 mm 17.5° 1008.1 hPa 4.4 m/s 0.0 mm 15.2° 1010.1 hPa 2.8 m/s -2.0 mm 17.3° 1009.4 hPa 3.3 m/s 0.0 mm 17.3° 1009.7 hPa 2.8 m/s 17.9° 1008.3 hPa 3.2 m/s
20:00 15.8° 1008.7 hPa 1.6 m/s 0.0 mm 15.8° 1006.9 hPa 3.4 m/s 0.0 mm 14.0° 1009.3 hPa 2.3 m/s 1.3 mm 16.2° 1008.7 hPa 0.7 m/s 0.0 mm 16.3° 1008.8 hPa 0.4 m/s 16.2° 1007.2 hPa 1.4 m/s
23:00 14.4° 1009.0 hPa 2.1 m/s 0.0 mm 15.0° 1008.2 hPa 2.7 m/s 0.0 mm 13.8° 1009.3 hPa 1.3 m/s 0.7 mm 14.7° 1009.4 hPa 2.0 m/s 0.0 mm 14.0° 1009.0 hPa 2.0 m/s 14.8° 1008.4 hPa 2.0 m/s
 08:04     20:39    Daglengte: 12:35 Morgen
02:00 13.8° 1007.9 hPa 2.4 m/s 2.9 mm 14.6° 1006.4 hPa 4.1 m/s 0.5 mm 12.7° 1008.3 hPa 1.8 m/s 3.9 mm 13.9° 1008.0 hPa 2.4 m/s 0.0 mm 13.6° 1007.5 hPa 1.8 m/s 14.3° 1006.2 hPa 3.6 m/s
05:00 13.2° 1006.0 hPa 6.0 m/s 8.4 mm 13.5° 1005.0 hPa 7.0 m/s 18.5 mm 13.1° 1005.9 hPa 6.3 m/s 3.4 mm 13.3° 1006.5 hPa 6.1 m/s 0.0 mm 12.8° 1006.0 hPa 5.4 m/s 13.2° 1005.3 hPa 3.8 m/s
08:00 13.2° 1005.9 hPa 7.5 m/s 9.1 mm 13.7° 1004.9 hPa 8.4 m/s 39.9 mm 13.4° 1006.2 hPa 7.1 m/s 4.5 mm 12.8° 1006.2 hPa 7.2 m/s 0.0 mm 12.3° 1005.9 hPa 6.2 m/s 13.2° 1005.5 hPa 8.8 m/s
11:00 13.9° 1006.8 hPa 8.2 m/s 13.2 mm 14.7° 1006.0 hPa 8.1 m/s 46.0 mm 13.7° 1007.9 hPa 7.8 m/s 11.5 mm 13.9° 1006.3 hPa 8.2 m/s 0.0 mm 13.5° 1006.6 hPa 7.2 m/s 13.4° 1006.5 hPa 6.9 m/s
14:00 14.7° 1008.0 hPa 5.7 m/s 12.5 mm 15.3° 1007.3 hPa 6.6 m/s 53.6 mm 13.9° 1008.9 hPa 5.2 m/s 2.7 mm 14.9° 1007.6 hPa 5.7 m/s 0.0 mm 14.5° 1008.0 hPa 5.1 m/s 13.8° 1007.2 hPa 5.2 m/s
17:00 15.3° 1007.7 hPa 4.1 m/s 11.9 mm 16.2° 1006.6 hPa 6.0 m/s 58.1 mm 14.1° 1008.0 hPa 3.1 m/s 1.4 mm 15.0° 1007.5 hPa 3.7 m/s 0.0 mm 15.7° 1007.7 hPa 3.8 m/s 15.1° 1006.5 hPa 4.0 m/s
20:00 14.4° 1008.2 hPa 3.1 m/s 11.2 mm 15.6° 1007.2 hPa 5.6 m/s 60.1 mm 14.5° 1008.1 hPa 1.7 m/s 0.5 mm 14.2° 1008.1 hPa 2.9 m/s 0.0 mm 14.0° 1008.3 hPa 2.5 m/s 15.3° 1007.2 hPa 3.2 m/s
23:00 14.0° 1010.3 hPa 2.7 m/s 12.9 mm 15.2° 1009.6 hPa 4.1 m/s 68.8 mm 14.0° 1010.0 hPa 2.4 m/s 2.0 mm 13.6° 1010.3 hPa 1.9 m/s 0.0 mm 13.3° 1010.3 hPa 2.7 m/s 14.4° 1009.8 hPa 2.2 m/s
 08:03     20:40    Daglengte: 12:37 Woensdag 01 Apr
02:00 14.1° 1010.6 hPa 3.2 m/s 16.0 mm 15.8° 1010.0 hPa 4.8 m/s 80.2 mm 14.3° 1009.8 hPa 2.4 m/s 7.0 mm 13.7° 1011.1 hPa 3.2 m/s 0.0 mm 13.3° 1010.6 hPa 2.9 m/s 13.3° 1011.0 hPa 1.3 m/s
05:00 13.5° 1010.1 hPa 1.8 m/s 19.0 mm 13.9° 1010.1 hPa 3.0 m/s 85.1 mm 14.0° 1009.6 hPa 2.1 m/s 3.6 mm 13.0° 1010.3 hPa 3.0 m/s 0.0 mm 12.6° 1009.8 hPa 1.3 m/s 12.4° 1011.7 hPa 0.9 m/s
08:00 12.5° 1011.4 hPa 1.6 m/s 0.0 mm 13.4° 1011.5 hPa 2.8 m/s 85.1 mm 12.7° 1011.3 hPa 0.9 m/s 0.0 mm 12.0° 1011.6 hPa 1.9 m/s 0.0 mm 10.7° 1011.2 hPa 1.1 m/s 11.7° 1013.0 hPa 1.6 m/s
11:00 14.7° 1013.3 hPa 2.2 m/s 0.0 mm 15.4° 1013.2 hPa 3.5 m/s 85.1 mm 14.6° 1013.0 hPa 2.0 m/s 0.0 mm 14.6° 1014.0 hPa 2.2 m/s 15.3° 1014.2 hPa 1.5 m/s
14:00 17.4° 1012.9 hPa 3.0 m/s 0.0 mm 18.5° 1012.7 hPa 3.8 m/s 85.1 mm 17.1° 1012.2 hPa 2.7 m/s 0.1 mm 17.7° 1013.3 hPa 3.0 m/s 17.4° 1013.9 hPa 2.4 m/s
17:00 17.8° 1011.5 hPa 3.1 m/s 11.7 mm 19.2° 1011.4 hPa 5.6 m/s 85.1 mm 15.4° 1011.1 hPa 3.4 m/s 1.0 mm 18.4° 1012.0 hPa 2.7 m/s 18.1° 1012.6 hPa 3.0 m/s
20:00 15.7° 1011.9 hPa 3.0 m/s 6.0 mm 16.2° 1011.9 hPa 5.6 m/s 85.1 mm 14.1° 1012.0 hPa 1.4 m/s 1.7 mm 15.7° 1012.3 hPa 2.5 m/s 15.9° 1012.7 hPa 2.5 m/s
23:00 13.0° 1014.0 hPa 1.7 m/s 0.0 mm 15.1° 1014.2 hPa 3.9 m/s 85.1 mm 12.6° 1013.1 hPa 0.2 m/s 0.2 mm 12.1° 1014.5 hPa 1.6 m/s 13.6° 1014.9 hPa 1.5 m/s
 08:01     20:41    Daglengte: 12:40 Donderdag 02 Apr
02:00 12.0° 1013.6 hPa 2.1 m/s 0.0 mm 12.7° 1014.2 hPa 3.3 m/s 85.1 mm 11.7° 1013.1 hPa 2.1 m/s 0.0 mm 10.6° 1013.7 hPa 1.5 m/s 12.4° 1014.1 hPa 1.7 m/s
05:00 11.4° 1012.6 hPa 1.8 m/s 0.0 mm 11.4° 1012.9 hPa 2.7 m/s 85.1 mm 11.2° 1013.1 hPa 3.3 m/s 0.0 mm 10.6° 1012.7 hPa 1.0 m/s 11.6° 1011.8 hPa 0.7 m/s
08:00 11.3° 1011.8 hPa 2.2 m/s 20.8 mm 11.0° 1012.1 hPa 2.3 m/s 85.1 mm 11.1° 1014.2 hPa 3.6 m/s 0.0 mm 10.6° 1011.6 hPa 0.5 m/s 12.5° 1010.7 hPa 2.1 m/s
11:00 13.9° 1012.9 hPa 3.2 m/s 0.0 mm 14.5° 1012.8 hPa 2.4 m/s 85.1 mm 13.7° 1015.8 hPa 5.2 m/s 0.0 mm 13.9° 1012.2 hPa 3.0 m/s 12.8° 1011.6 hPa 2.8 m/s
14:00 17.0° 1013.1 hPa 5.5 m/s 0.0 mm 16.2° 1012.3 hPa 4.5 m/s 85.2 mm 16.8° 1015.5 hPa 6.3 m/s 0.0 mm 17.2° 1012.8 hPa 5.4 m/s 17.0° 1011.9 hPa 5.1 m/s
17:00 16.5° 1013.2 hPa 4.0 m/s 46.4 mm 16.4° 1013.5 hPa 3.9 m/s 17.4° 1010.5 hPa 5.1 m/s 46.4 mm
20:00 15.9° 1013.6 hPa 3.2 m/s 46.9 mm 16.0° 1013.8 hPa 3.1 m/s 15.1° 1011.2 hPa 4.4 m/s 46.9 mm
23:00 13.0° 1014.7 hPa 2.7 m/s 46.9 mm 13.0° 1014.8 hPa 2.5 m/s 12.4° 1013.7 hPa 4.0 m/s 46.9 mm
 08:00     20:42    Daglengte: 12:42 Vrijdag 03 Apr
02:00 10.2° 1015.7 hPa 2.2 m/s 46.9 mm 10.0° 1015.8 hPa 2.0 m/s 11.9° 1014.1 hPa 4.3 m/s 46.9 mm
05:00 9.9° 1014.9 hPa 2.3 m/s 46.9 mm 9.8° 1015.0 hPa 2.2 m/s 11.2° 1013.5 hPa 2.9 m/s 46.9 mm
08:00 9.6° 1014.2 hPa 2.5 m/s 46.9 mm 9.5° 1014.2 hPa 2.5 m/s 10.9° 1013.7 hPa 2.3 m/s 46.9 mm
11:00 13.9° 1014.8 hPa 3.7 m/s 46.9 mm 13.7° 1014.9 hPa 3.8 m/s 16.0° 1013.9 hPa 2.6 m/s 46.9 mm
14:00 17.9° 1015.4 hPa 5.1 m/s 46.9 mm 17.9° 1015.5 hPa 5.0 m/s 17.4° 1013.8 hPa 6.2 m/s 46.9 mm
17:00 16.5° 1014.9 hPa 4.7 m/s 46.9 mm 16.4° 1015.1 hPa 4.7 m/s 17.2° 1012.0 hPa 5.1 m/s 46.9 mm
20:00 14.9° 1014.5 hPa 4.5 m/s 46.9 mm 14.9° 1014.8 hPa 4.4 m/s 15.1° 1011.6 hPa 5.1 m/s 46.9 mm
23:00 14.4° 1015.1 hPa 5.2 m/s 46.9 mm 14.4° 1015.2 hPa 5.0 m/s 14.1° 1013.2 hPa 7.1 m/s 46.9 mm
 07:58     20:43    Daglengte: 12:45 Zaterdag 04 Apr
02:00 13.9° 1015.4 hPa 5.7 m/s 46.9 mm 13.9° 1015.7 hPa 5.6 m/s 13.5° 1012.6 hPa 7.4 m/s 46.9 mm
05:00 14.2° 1014.6 hPa 5.8 m/s 46.9 mm 14.2° 1015.0 hPa 5.8 m/s 13.2° 1010.7 hPa 5.6 m/s 46.9 mm
08:00 14.6° 1013.9 hPa 6.1 m/s 46.9 mm 14.6° 1014.2 hPa 6.1 m/s 14.0° 1010.6 hPa 6.5 m/s 46.9 mm
11:00 15.6° 1014.8 hPa 5.7 m/s 46.9 mm 15.4° 1015.2 hPa 5.5 m/s 17.2° 1010.4 hPa 7.9 m/s 46.9 mm
14:00 16.5° 1015.9 hPa 5.3 m/s 46.9 mm 16.3° 1016.3 hPa 5.0 m/s 18.5° 1011.2 hPa 8.2 m/s 46.9 mm
17:00 16.1° 1015.9 hPa 4.0 m/s 47.1 mm 16.1° 1016.4 hPa 4.2 m/s 17.2° 1010.7 hPa 1.7 m/s 47.1 mm
20:00 15.9° 1016.0 hPa 3.2 m/s 47.1 mm 15.8° 1016.5 hPa 3.4 m/s 16.7° 1011.1 hPa 0.6 m/s 47.1 mm
23:00 14.9° 1017.2 hPa 2.9 m/s 49.7 mm 14.9° 1017.5 hPa 3.0 m/s 14.5° 1013.7 hPa 1.6 m/s 49.7 mm
 07:57     20:43    Daglengte: 12:46 Zondag 05 Apr
02:00 14.1° 1018.2 hPa 2.6 m/s 50.0 mm 14.1° 1018.5 hPa 2.7 m/s 14.4° 1014.7 hPa 2.0 m/s 50.0 mm
05:00 13.4° 1018.9 hPa 2.3 m/s 53.8 mm 13.4° 1019.3 hPa 2.2 m/s 13.9° 1014.0 hPa 2.9 m/s 53.8 mm
08:00 12.8° 1019.7 hPa 1.8 m/s 56.4 mm 12.7° 1020.1 hPa 1.8 m/s 14.3° 1015.2 hPa 1.4 m/s 56.4 mm
11:00 15.0° 1021.2 hPa 2.6 m/s 56.7 mm 14.9° 1021.7 hPa 2.7 m/s 15.4° 1016.1 hPa 2.0 m/s 56.7 mm
14:00 17.2° 1022.7 hPa 3.4 m/s 56.8 mm 17.2° 1023.2 hPa 3.6 m/s 16.9° 1017.7 hPa 1.6 m/s 56.8 mm
17:00 16.6° 1022.6 hPa 2.6 m/s 56.8 mm 16.5° 1023.1 hPa 2.6 m/s 18.2° 1016.9 hPa 2.1 m/s 56.8 mm
20:00 16.0° 1022.5 hPa 1.7 m/s 56.8 mm 15.8° 1023.0 hPa 1.7 m/s 18.2° 1017.2 hPa 1.7 m/s 56.8 mm
23:00 14.6° 1024.0 hPa 1.3 m/s 56.9 mm 14.5° 1024.3 hPa 1.4 m/s 16.0° 1020.0 hPa 0.4 m/s 56.9 mm
 07:56     20:44    Daglengte: 12:48 Maandag 06 Apr
02:00 13.4° 1025.3 hPa 1.0 m/s 56.9 mm 13.2° 1025.7 hPa 1.0 m/s 15.3° 1020.9 hPa 0.5 m/s 56.9 mm
05:00 13.5° 1025.0 hPa 0.9 m/s 56.9 mm 13.4° 1025.5 hPa 0.8 m/s 14.5° 1020.4 hPa 1.4 m/s 56.9 mm
08:00 13.7° 1024.9 hPa 0.7 m/s 56.9 mm 13.6° 1025.2 hPa 0.6 m/s 14.4° 1021.1 hPa 1.3 m/s 56.9 mm
11:00 15.6° 1025.8 hPa 2.1 m/s 56.9 mm 15.4° 1026.2 hPa 2.2 m/s 17.9° 1021.6 hPa 1.2 m/s 56.9 mm
14:00 17.4° 1026.7 hPa 3.8 m/s 56.9 mm 17.2° 1027.1 hPa 3.8 m/s 19.6° 1021.8 hPa 3.5 m/s 56.9 mm
20:00 15.5° 1025.5 hPa 2.2 m/s 56.9 mm 15.3° 1026.0 hPa 2.2 m/s 17.8° 1020.6 hPa 2.2 m/s 56.9 mm
 07:54     20:45    Daglengte: 12:51 Dinsdag 07 Apr
02:00 13.7° 1026.8 hPa 1.3 m/s 56.9 mm 13.6° 1027.2 hPa 1.4 m/s 15.1° 1022.5 hPa 0.1 m/s 56.9 mm
08:00 14.1° 1025.8 hPa 2.6 m/s 56.9 mm 14.1° 1026.2 hPa 2.7 m/s 14.3° 1021.1 hPa 1.4 m/s 56.9 mm
14:00 17.0° 1027.0 hPa 4.0 m/s 56.9 mm 16.8° 1027.5 hPa 4.0 m/s 19.6° 1021.3 hPa 3.5 m/s 56.9 mm
20:00 15.6° 1024.9 hPa 1.6 m/s 56.9 mm 15.4° 1025.4 hPa 1.6 m/s 18.0° 1019.6 hPa 1.4 m/s 56.9 mm
 07:53     20:46    Daglengte: 12:53 Woensdag 08 Apr
02:00 12.9° 1026.1 hPa 1.3 m/s 56.9 mm 12.7° 1026.5 hPa 1.4 m/s 15.5° 1021.9 hPa 0.5 m/s 56.9 mm
08:00 12.9° 1025.0 hPa 0.8 m/s 56.9 mm 12.7° 1025.4 hPa 0.7 m/s 15.4° 1020.3 hPa 1.5 m/s 56.9 mm
14:00 19.2° 1025.2 hPa 2.5 m/s 56.9 mm 18.9° 1025.7 hPa 2.5 m/s 22.6° 1020.0 hPa 2.0 m/s 56.9 mm
20:00 17.0° 1023.6 hPa 1.4 m/s 57.0 mm 16.6° 1024.1 hPa 1.5 m/s 20.9° 1017.8 hPa 0.5 m/s 57.0 mm
 07:51     20:47    Daglengte: 12:56 Donderdag 09 Apr
02:00 19.1° 1019.0 hPa 3.3 m/s 57.0 mm 19.1° 1019.0 hPa 3.3 m/s 57.0 mm
08:00 17.4° 1016.5 hPa 2.3 m/s 57.0 mm 17.4° 1016.5 hPa 2.3 m/s 57.0 mm
14:00 21.3° 1021.1 hPa 0.8 m/s 0.3 mm
20:00 20.0° 1019.1 hPa 1.1 m/s 0.3 mm
 07:50     20:48    Daglengte: 12:58 Vrijdag 10 Apr
02:00 15.6° 1020.7 hPa 0.5 m/s 0.2 mm
08:00 14.3° 1019.9 hPa 0.8 m/s 0.2 mm
14:00 21.2° 1020.5 hPa 0.7 m/s 0.5 mm
20:00 20.3° 1018.6 hPa 1.0 m/s 0.3 mm
 07:49     20:49    Daglengte: 13:00 Zaterdag 11 Apr
02:00 15.6° 1020.1 hPa 0.6 m/s 0.3 mm
08:00 14.5° 1019.6 hPa 1.3 m/s 0.2 mm
14:00 21.0° 1020.2 hPa 1.7 m/s 0.4 mm
20:00 19.4° 1018.7 hPa 1.6 m/s 0.7 mm
 07:47     20:50    Daglengte: 13:03 Zondag 12 Apr
02:00 14.7° 1020.3 hPa 1.3 m/s 0.3 mm
08:00 13.5° 1019.6 hPa 1.0 m/s 0.4 mm
14:00 20.8° 1019.5 hPa 1.4 m/s 0.2 mm
20:00 19.6° 1017.4 hPa 1.3 m/s 0.3 mm
 07:46     20:50    Daglengte: 13:04 Maandag 13 Apr
02:00 14.9° 1018.6 hPa 0.5 m/s 0.3 mm
08:00 13.8° 1017.8 hPa 0.9 m/s 0.3 mm
14:00 21.1° 1017.7 hPa 1.3 m/s 0.2 mm
20:00 19.7° 1015.7 hPa 1.4 m/s 0.2 mm
 07:44     20:51    Daglengte: 13:07 Dinsdag 14 Apr
02:00 14.7° 1017.1 hPa 0.3 m/s 0.0 mm
08:00 13.6° 1016.6 hPa 0.5 m/s 0.2 mm
14:00 21.0° 1017.0 hPa 1.5 m/s 0.2 mm
FMI Hirlam - 7.5 km EWN WRFDA - 12 km DWD ICON - 7 km GFS - 25 km Basiskaart






























































Updatetijd (Europe/Amsterdam) Resolutie Lengte Stap
FMI Hirlam 13:30, 19:30, 01:30, 07:30 7.5 km 49h 1h
EWN WRFDA 09:30, 15:30, 21:30, 03:30 12 km 73h 1h
DWD ICON 11:45, 17:45, 23:45, 05:45 7 km 75h 1h
GFS 13:45, 19:45, 01:45, 07:45 25 km 237h 3h
30+ mm
25-30 mm
20-25 mm
15-20 mm
10-15 mm
6-10 mm
4-6 mm
2-4 mm
1-2 mm
0.5-1 mm
0.2-0.5 mm
0.1-0.2 mm
30+ mm
25-30 mm
20-25 mm
15-20 mm
10-15 mm
6-10 mm
4-6 mm
2-4 mm
1-2 mm
0.5-1 mm
0.2-0.5 mm
0.1-0.2 mm
Sneeuwval
Natte sneeuw
Hagel
Vorst
30+ mm
25-30 mm
20-25 mm
15-20 mm
10-15 mm
6-10 mm
4-6 mm
2-4 mm
1-2 mm
0.5-1 mm
0.2-0.5 mm
0.1-0.2 mm
Sneeuwval
Natte sneeuw
Hagel
Vorst
Onweer
50 mm
40 mm
30 mm
26 mm
22 mm
18 mm
14 mm
10 mm
9 mm
8 mm
7 mm
6 mm
5 mm
4.5 mm
4 mm
3.5 mm
3 mm
2.5 mm
2 mm
1.5 mm
1 mm
0.8 mm
0.6 mm
0.4 mm
0.2 mm
0.05 mm
35°
30°
25°
20°
15°
10°
-5°
-10°
-15°
-20°
-25°
-30°
-35°
120> km/h
105 km/h
90 km/h
75 km/h
60 km/h
50 km/h
40 km/h
30 km/h
20 km/h
10 km/h
0 km/h
2600 J/kg
2400 J/kg
2200 J/kg
2000 J/kg
1800 J/kg
1600 J/kg
1400 J/kg
1200 J/kg
1000 J/kg
800 J/kg
600 J/kg
400 J/kg
200 J/kg
70 dBZ
65 dBZ
60 dBZ
55 dBZ
50 dBZ
45 dBZ
40 dBZ
35 dBZ
30 dBZ
25 dBZ
20 dBZ
15 dBZ
10 dBZ
5 dBZ
-1 K
-2 K
-3 K
-4 K
-5 K
-6 K
-7 K
-8 K
-9 K
950 m²/s²
900 m²/s²
850 m²/s²
800 m²/s²
750 m²/s²
700 m²/s²
650 m²/s²
600 m²/s²
550 m²/s²
500 m²/s²
450 m²/s²
400 m²/s²
350 m²/s²
300 m²/s²
250 m²/s²
200 m²/s²
150 m²/s²
100 m²/s²
46 m/s
44 m/s
42 m/s
40 m/s
38 m/s
36 m/s
34 m/s
32 m/s
30 m/s
28 m/s
26 m/s
24 m/s
22 m/s
20 m/s
16 m/s
12 m/s
8 m/s
4 m/s
30 m/s
28 m/s
26 m/s
24 m/s
22 m/s
20 m/s
18 m/s
16 m/s
14 m/s
12 m/s
10 m/s
8 m/s
6 m/s
4 m/s
2 m/s
3.0
2.8
2.6
2.4
2.2
2.0
1.8
1.6
1.4
1.2
1.0
0.8
0.6
0.4
0.2
15
14
13
12
11
10
9
8
7
6
5
4
3
2
1
90%
80%
70%
60%
50%
40%
30%
20%